,,Stat6,,Stat2,,Stat8,,Stat9,,Stat10,,Wind1,,Wind1,
time,status,PA1M_AVG,status,PR1M_SUM,status,RH1M_AVG,status,SR1M_AVG,status,TA1M_AVG,status,W1dAve1m,status,W1sAve1m,
2008-01-08, 00:00:00,VALID,919.237,VALID,0,VALID,100,VALID,0.0339617,VALID,18.3313,VALID,51,VALID,0.416016,
2008-01-08, 00:01:00,VALID,919.232,VALID,0,VALID,100,VALID,0.0169808,VALID,18.3151,VALID,51,VALID,0.345203,
2008-01-08, 00:02:00,VALID,919.225,VALID,0,VALID,100,VALID,0.0849042,VALID,18.3114,VALID,51,VALID,0.149306,
2008-01-08, 00:03:00,VALID,919.239,VALID,0,VALID,100,VALID,0,VALID,18.2989,VALID,51,VALID,0.116997,
2008-01-08, 00:04:00,VALID,919.225,VALID,0,VALID,100,VALID,0,VALID,18.322,VALID,51,VALID,0.293359,
2008-01-08, 00:05:00,VALID,919.227,VALID,0,VALID,100,VALID,0.0679233,VALID,18.3505,VALID,51,VALID,0.203697,
2008-01-08, 00:06:00,VALID,919.242,VALID,0,VALID,100,VALID,0.0679233,VALID,18.3795,VALID,51,VALID,0.0930398,
2008-01-08, 00:07:00,VALID,919.236,VALID,0,VALID,100,VALID,0.0339617,VALID,18.4061,VALID,51,VALID,0,
2008-01-08, 00:08:00,VALID,919.236,VALID,0,VALID,100,VALID,0,VALID,18.3799,VALID,51,VALID,0,
2008-01-08, 00:09:00,VALID,919.228,VALID,0,VALID,100,VALID,0.0509425,VALID,18.3862,VALID,51,VALID,0,
2008-01-08, 00:10:00,VALID,919.23,VALID,0,VALID,100,VALID,0.0509425,VALID,18.3925,VALID,51,VALID,0,
2008-01-08, 00:11:00,VALID,919.226,VALID,0,VALID,100,VALID,0.0169808,VALID,18.4189,VALID,51,VALID,0,
2008-01-08, 00:12:00,VALID,919.227,VALID,0,VALID,100,VALID,-0.0339617,VALID,18.4135,VALID,51,VALID,0,
2008-01-08, 00:13:00,VALID,919.228,VALID,0,VALID,100,VALID,-0.101885,VALID,18.3881,VALID,51,VALID,0,
2008-01-08, 00:14:00,VALID,919.235,VALID,0,VALID,100,VALID,-0.0849042,VALID,18.3781,VALID,54,VALID,0.0277158,
2008-01-08, 00:15:00,VALID,919.221,VALID,0,VALID,100,VALID,-0.0849042,VALID,18.4821,VALID,82,VALID,0.70846,
2008-01-08, 00:16:00,VALID,919.221,VALID,0,VALID,100,VALID,-0.0679233,VALID,18.5567,VALID,82,VALID,0.622656,
2008-01-08, 00:17:00,VALID,919.21,VALID,0,VALID,100,VALID,-0.0679233,VALID,18.5794,VALID,83,VALID,0.62872,
2008-01-08, 00:18:00,VALID,919.192,VALID,0,VALID,100,VALID,-0.0679233,VALID,18.5984,VALID,88,VALID,0.670873,
2008-01-08, 00:19:00,VALID,919.178,VALID,0,VALID,100,VALID,-0.0339617,VALID,18.647,VALID,88,VALID,0.574219,
2008-01-08, 00:20:00,VALID,919.152,VALID,0,VALID,100,VALID,-0.0509425,VALID,18.6573,VALID,88,VALID,0.365189,
2008-01-08, 00:21:00,VALID,919.129,VALID,0,VALID,100,VALID,-0.0339617,VALID,18.6049,VALID,88,VALID,0.234575,
2008-01-08, 00:22:00,VALID,919.107,VALID,0,VALID,100,VALID,-0.0509425,VALID,18.566,VALID,88,VALID,0.294034,
2008-01-08, 00:23:00,VALID,919.093,VALID,0,VALID,100,VALID,-0.0509425,VALID,18.5301,VALID,88,VALID,0.233631,
2008-01-08, 00:24:00,VALID,919.088,VALID,0,VALID,100,VALID,-0.0509425,VALID,18.5178,VALID,88,VALID,0.108103,
2008-01-08, 00:25:00,VALID,919.075,VALID,0,VALID,100,VALID,-0.0679233,VALID,18.4976,VALID,88,VALID,0,
2008-01-08, 00:26:00,VALID,919.072,VALID,0,VALID,100,VALID,-0.0679233,VALID,18.4886,VALID,88,VALID,0,
2008-01-08, 00:27:00,VALID,919.063,VALID,0,VALID,100,VALID,-0.101885,VALID,18.4754,VALID,88,VALID,0,
2008-01-08, 00:28:00,VALID,919.064,VALID,0,VALID,100,VALID,-0.0679233,VALID,18.4657,VALID,88,VALID,0.197218,
2008-01-08, 00:29:00,VALID,919.068,VALID,0,VALID,100,VALID,-0.0169808,VALID,18.4941,VALID,88,VALID,0.161222,
2008-01-08, 00:30:00,VALID,919.056,VALID,0,VALID,100,VALID,-0.0679233,VALID,18.527,VALID,88,VALID,0,
2008-01-08, 00:31:00,VALID,919.029,VALID,0,VALID,100,VALID,-0.0679233,VALID,18.5365,VALID,88,VALID,0,
2008-01-08, 00:32:00,VALID,919.001,VALID,0,VALID,100,VALID,-0.0169808,VALID,18.3711,VALID,88,VALID,0.0872396,
2008-01-08, 00:33:00,VALID,918.975,VALID,0,VALID,100,VALID,0,VALID,18.2317,VALID,88,VALID,0.400036,
2008-01-08, 00:34:00,VALID,918.952,VALID,0,VALID,100,VALID,-0.0339617,VALID,18.199,VALID,88,VALID,0.235119,
2008-01-08, 00:35:00,VALID,918.907,VALID,0,VALID,100,VALID,-0.0509425,VALID,18.2836,VALID,88,VALID,0.0202753,
2008-01-08, 00:36:00,VALID,918.872,VALID,0,VALID,100,VALID,-0.0339617,VALID,18.3779,VALID,88,VALID,0,
2008-01-08, 00:37:00,VALID,918.844,VALID,0,VALID,100,VALID,-0.0509425,VALID,18.4165,VALID,88,VALID,0,
2008-01-08, 00:38:00,VALID,918.816,VALID,0,VALID,100,VALID,-0.0339617,VALID,18.4362,VALID,88,VALID,0,
2008-01-08, 00:39:00,VALID,918.805,VALID,0,VALID,100,VALID,-0.0849042,VALID,18.3681,VALID,87,VALID,0.511814,
2008-01-08, 00:40:00,VALID,918.785,VALID,0,VALID,100,VALID,-0.0339617,VALID,18.2254,VALID,75,VALID,1.08594,
2008-01-08, 00:41:00,VALID,918.774,VALID,0,VALID,100,VALID,-0.0679233,VALID,18.2514,VALID,76,VALID,0.79387,
2008-01-08, 00:42:00,VALID,918.779,VALID,0,VALID,100,VALID,-0.0339617,VALID,18.3355,VALID,85,VALID,0.780887,
2008-01-08, 00:43:00,VALID,918.782,VALID,0,VALID,100,VALID,-0.0339617,VALID,18.3938,VALID,92,VALID,0.804297,
2008-01-08, 00:44:00,VALID,918.775,VALID,0,VALID,100,VALID,-0.0169808,VALID,18.3874,VALID,133,VALID,1.11589,
2008-01-08, 00:45:00,VALID,918.764,VALID,0,VALID,100,VALID,-0.0339617,VALID,18.3647,VALID,157,VALID,1.3196,
2008-01-08, 00:46:00,VALID,918.758,VALID,0,VALID,100,VALID,-0.0679233,VALID,18.3517,VALID,165,VALID,1.1456,
2008-01-08, 00:47:00,VALID,918.754,VALID,0,VALID,100,VALID,-0.0509425,VALID,18.342,VALID,164,VALID,1.04148,
2008-01-08, 00:48:00,VALID,918.746,VALID,0,VALID,100,VALID,-0.0339617,VALID,18.319,VALID,161,VALID,0.786966,
2008-01-08, 00:49:00,VALID,918.724,VALID,0,VALID,100,VALID,0,VALID,18.2963,VALID,160,VALID,0.603819,
2008-01-08, 00:50:00,VALID,918.719,VALID,0,VALID,100,VALID,-0.0169808,VALID,18.2836,VALID,160,VALID,0.310192,
2008-01-08, 00:51:00,VALID,918.725,VALID,0,VALID,100,VALID,0,VALID,18.2639,VALID,160,VALID,0,
2008-01-08, 00:52:00,VALID,918.728,VALID,0,VALID,100,VALID,0,VALID,18.2474,VALID,160,VALID,0.071733,
2008-01-08, 00:53:00,VALID,918.731,VALID,0,VALID,100,VALID,0,VALID,18.2479,VALID,160,VALID,0.00218023,
2008-01-08, 00:54:00,VALID,918.737,VALID,0,VALID,100,VALID,-0.0509425,VALID,18.2312,VALID,160,VALID,0,
2008-01-08, 00:55:00,VALID,918.725,VALID,0,VALID,100,VALID,0,VALID,18.2412,VALID,160,VALID,0,
2008-01-08, 00:56:00,VALID,918.735,VALID,0,VALID,100,VALID,-0.0169808,VALID,18.2285,VALID,160,VALID,0,
2008-01-08, 00:57:00,VALID,918.751,VALID,0,VALID,100,VALID,-0.0169808,VALID,18.2155,VALID,160,VALID,0,
2008-01-08, 00:58:00,VALID,918.768,VALID,0,VALID,100,VALID,-0.0679233,VALID,18.199,VALID,160,VALID,0,
2008-01-08, 00:59:00,VALID,918.761,VALID,0,VALID,100,VALID,-0.0509425,VALID,18.1573,VALID,160,VALID,0,
2008-01-08, 01:00:00,VALID,918.757,VALID,0,VALID,100,VALID,-0.0509425,VALID,18.1377,VALID,160,VALID,0,
2008-01-08, 01:01:00,VALID,918.746,VALID,0,VALID,100,VALID,-0.0849042,VALID,18.1511,VALID,160,VALID,0,
2008-01-08, 01:02:00,VALID,918.722,VALID,0,VALID,100,VALID,-0.0339617,VALID,18.1247,VALID,160,VALID,0,
2008-01-08, 01:03:00,VALID,918.707,VALID,0,VALID,100,VALID,-0.0509425,VALID,18.1312,VALID,160,VALID,0,
2008-01-08, 01:04:00,VALID,918.706,VALID,0,VALID,100,VALID,-0.0679233,VALID,18.2185,VALID,156,VALID,0.131541,
2008-01-08, 01:05:00,VALID,918.704,VALID,0,VALID,100,VALID,-0.0679233,VALID,18.1474,VALID,133,VALID,1.08455,
2008-01-08, 01:06:00,VALID,918.71,VALID,0,VALID,100,VALID,-0.0509425,VALID,18.0696,VALID,122,VALID,1.27468,
2008-01-08, 01:07:00,VALID,918.7,VALID,0,VALID,100,VALID,-0.0679233,VALID,18.0276,VALID,118,VALID,1.5206,
2008-01-08, 01:08:00,VALID,918.712,VALID,0,VALID,100,VALID,-0.0679233,VALID,18.0045,VALID,120,VALID,1.5545,
2008-01-08, 01:09:00,VALID,918.72,VALID,0,VALID,100,VALID,-0.0339617,VALID,18.0306,VALID,123,VALID,1.51916,
2008-01-08, 01:10:00,VALID,918.726,VALID,0,VALID,100,VALID,-0.0679233,VALID,18.0466,VALID,120,VALID,1.54185,
2008-01-08, 01:11:00,VALID,918.726,VALID,0,VALID,100,VALID,-0.0509425,VALID,18.0466,VALID,117,VALID,1.75295,
2008-01-08, 01:12:00,VALID,918.698,VALID,0,VALID,100,VALID,-4.62593e-018,VALID,18.0429,VALID,121,VALID,1.26328,
2008-01-08, 01:13:00,VALID,918.694,VALID,0,VALID,100,VALID,0.0679233,VALID,18.0221,VALID,121,VALID,1.44531,
2008-01-08, 01:14:00,VALID,918.68,VALID,0,VALID,100,VALID,0.0849042,VALID,18.0258,VALID,136,VALID,1.06789,
2008-01-08, 01:15:00,VALID,918.679,VALID,0,VALID,100,VALID,0.0339617,VALID,18.0228,VALID,140,VALID,0.929324,
2008-01-08, 01:16:00,VALID,918.661,VALID,0,VALID,100,VALID,0.0509425,VALID,18.0066,VALID,132,VALID,1.25781,
2008-01-08, 01:17:00,VALID,918.67,VALID,0,VALID,100,VALID,0.0679233,VALID,18.0031,VALID,136,VALID,1.47236,
2008-01-08, 01:18:00,VALID,918.654,VALID,0,VALID,100,VALID,0.0509425,VALID,18.0066,VALID,138,VALID,1.29137,
2008-01-08, 01:19:00,VALID,918.666,VALID,0,VALID,100,VALID,0.0849042,VALID,18.0226,VALID,136,VALID,1.16185,
2008-01-08, 01:20:00,VALID,918.649,VALID,0,VALID,100,VALID,0.0849042,VALID,18.0258,VALID,130,VALID,1.01973,
2008-01-08, 01:21:00,VALID,918.62,VALID,0,VALID,100,VALID,0.0509425,VALID,18.026,VALID,115,VALID,0.828497,
2008-01-08, 01:22:00,VALID,918.614,VALID,0,VALID,100,VALID,0.101885,VALID,18.0353,VALID,113,VALID,0.900856,
2008-01-08, 01:23:00,VALID,918.586,VALID,0,VALID,100,VALID,0.0849042,VALID,18.0455,VALID,128,VALID,1.31882,
2008-01-08, 01:24:00,VALID,918.56,VALID,0,VALID,100,VALID,0.0679233,VALID,18.0612,VALID,130,VALID,1.06305,
2008-01-08, 01:25:00,VALID,918.523,VALID,0,VALID,100,VALID,0.101885,VALID,18.0714,VALID,131,VALID,1.09859,
2008-01-08, 01:26:00,VALID,918.513,VALID,0,VALID,100,VALID,0.0679233,VALID,18.0647,VALID,144,VALID,1.09757,
2008-01-08, 01:27:00,VALID,918.487,VALID,0,VALID,100,VALID,0,VALID,18.0622,VALID,137,VALID,0.858594,
2008-01-08, 01:28:00,VALID,918.495,VALID,0,VALID,100,VALID,-0.0169808,VALID,18.0564,VALID,144,VALID,0.90298,
2008-01-08, 01:29:00,VALID,918.485,VALID,0,VALID,100,VALID,-0.0339617,VALID,18.0397,VALID,156,VALID,1.2151,
2008-01-08, 01:30:00,VALID,918.481,VALID,0,VALID,100,VALID,-0.0339617,VALID,18.0401,VALID,152,VALID,1.03627,
2008-01-08, 01:31:00,VALID,918.463,VALID,0,VALID,100,VALID,-0.0679233,VALID,18.0404,VALID,150,VALID,0.928571,
2008-01-08, 01:32:00,VALID,918.453,VALID,0,VALID,100,VALID,-0.0679233,VALID,18.0339,VALID,156,VALID,0.568537,
2008-01-08, 01:33:00,VALID,918.435,VALID,0,VALID,100,VALID,-0.0339617,VALID,18.0142,VALID,158,VALID,1.03089,
2008-01-08, 01:34:00,VALID,918.417,VALID,0,VALID,100,VALID,-0.0169808,VALID,18.0042,VALID,151,VALID,0.58505,
2008-01-08, 01:35:00,VALID,918.4,VALID,0,VALID,100,VALID,-0.0169808,VALID,17.9945,VALID,150,VALID,0.818359,
2008-01-08, 01:36:00,VALID,918.392,VALID,0,VALID,100,VALID,-0.0679233,VALID,17.9915,VALID,152,VALID,0.716844,
2008-01-08, 01:37:00,VALID,918.369,VALID,0,VALID,100,VALID,-0.0509425,VALID,17.995,VALID,156,VALID,0.758662,
2008-01-08, 01:38:00,VALID,918.368,VALID,0,VALID,100,VALID,-0.101885,VALID,17.985,VALID,156,VALID,0.368278,
2008-01-08, 01:39:00,VALID,918.374,VALID,0,VALID,100,VALID,-0.0679233,VALID,17.9788,VALID,156,VALID,0.372904,
2008-01-08, 01:40:00,VALID,918.346,VALID,0,VALID,100,VALID,-0.0509425,VALID,17.9785,VALID,156,VALID,0.161859,
2008-01-08, 01:41:00,VALID,918.341,VALID,0,VALID,100,VALID,-0.0509425,VALID,17.9593,VALID,156,VALID,0.067294,
2008-01-08, 01:42:00,VALID,918.33,VALID,0,VALID,100,VALID,-0.101885,VALID,17.9494,VALID,155,VALID,0.0205793,
2008-01-08, 01:43:00,VALID,918.333,VALID,0,VALID,100,VALID,-0.0849042,VALID,17.9364,VALID,144,VALID,0.167387,
2008-01-08, 01:44:00,VALID,918.308,VALID,0,VALID,100,VALID,-0.0509425,VALID,17.9526,VALID,144,VALID,0.2371,
2008-01-08, 01:45:00,VALID,918.291,VALID,0,VALID,100,VALID,-0.0679233,VALID,17.979,VALID,144,VALID,0.585392,
2008-01-08, 01:46:00,VALID,918.279,VALID,0,VALID,100,VALID,-0.0509425,VALID,17.9885,VALID,144,VALID,0.59375,
2008-01-08, 01:47:00,VALID,918.258,VALID,0,VALID,100,VALID,-0.0509425,VALID,18.0306,VALID,144,VALID,0.560976,
2008-01-08, 01:48:00,VALID,918.252,VALID,0,VALID,100,VALID,-0.0679233,VALID,18.0501,VALID,144,VALID,0.425409,
2008-01-08, 01:49:00,VALID,918.247,VALID,0,VALID,100,VALID,-0.101885,VALID,18.0501,VALID,150,VALID,0.463034,
2008-01-08, 01:50:00,VALID,918.236,VALID,0,VALID,100,VALID,-0.0849042,VALID,18.0371,VALID,161,VALID,0.573552,
2008-01-08, 01:51:00,VALID,918.213,VALID,0,VALID,100,VALID,-0.0679233,VALID,18.0401,VALID,161,VALID,0.540483,
2008-01-08, 01:52:00,VALID,918.194,VALID,0,VALID,100,VALID,-0.0509425,VALID,18.0698,VALID,161,VALID,0.564631,
2008-01-08, 01:53:00,VALID,918.192,VALID,0,VALID,100,VALID,-0.0509425,VALID,18.0721,VALID,161,VALID,0.485618,
2008-01-08, 01:54:00,VALID,918.176,VALID,0,VALID,100,VALID,-0.0849042,VALID,18.0763,VALID,161,VALID,0.530523,
2008-01-08, 01:55:00,VALID,918.156,VALID,0,VALID,100,VALID,-0.101885,VALID,18.0693,VALID,161,VALID,0.509146,
2008-01-08, 01:56:00,VALID,918.129,VALID,0,VALID,100,VALID,-0.0849042,VALID,18.0628,VALID,161,VALID,0.391135,
2008-01-08, 01:57:00,VALID,918.109,VALID,0,VALID,100,VALID,-0.0679233,VALID,18.0665,VALID,159,VALID,0.358648,
2008-01-08, 01:58:00,VALID,918.093,VALID,0,VALID,100,VALID,-0.0339617,VALID,18.0568,VALID,157,VALID,0,
2008-01-08, 01:59:00,VALID,918.073,VALID,0,VALID,100,VALID,-0.0339617,VALID,18.0533,VALID,157,VALID,0.00130208,
2008-01-08, 02:00:00,VALID,918.068,VALID,0,VALID,100,VALID,-0.0339617,VALID,17.8778,VALID,108,VALID,0.452925,
2008-01-08, 02:01:00,VALID,918.063,VALID,0,VALID,100,VALID,-0.0849042,VALID,17.7001,VALID,66,VALID,0.76242,
2008-01-08, 02:02:00,VALID,918.047,VALID,0,VALID,100,VALID,-0.0509425,VALID,17.752,VALID,66,VALID,0.698633,
2008-01-08, 02:03:00,VALID,918.045,VALID,0,VALID,100,VALID,-0.0509425,VALID,17.7196,VALID,66,VALID,0.825994,
2008-01-08, 02:04:00,VALID,918.038,VALID,0,VALID,100,VALID,-0.0849042,VALID,17.7874,VALID,66,VALID,0.714472,
2008-01-08, 02:05:00,VALID,918.025,VALID,0,VALID,100,VALID,-0.0679233,VALID,17.8748,VALID,66,VALID,0.703993,
2008-01-08, 02:06:00,VALID,917.999,VALID,0,VALID,100,VALID,-0.0679233,VALID,17.8523,VALID,67,VALID,1.01119,
2008-01-08, 02:07:00,VALID,917.992,VALID,0,VALID,100,VALID,-0.0509425,VALID,17.8653,VALID,66,VALID,0.783854,
2008-01-08, 02:08:00,VALID,917.966,VALID,0,VALID,100,VALID,-0.0509425,VALID,17.8164,VALID,57,VALID,0.807351,
2008-01-08, 02:09:00,VALID,917.941,VALID,0,VALID,100,VALID,-0.0679233,VALID,17.8037,VALID,46,VALID,0.737043,
2008-01-08, 02:10:00,VALID,917.929,VALID,0,VALID,100,VALID,-0.0679233,VALID,17.7745,VALID,65,VALID,0.556463,
2008-01-08, 02:11:00,VALID,917.901,VALID,0,VALID,100,VALID,-0.0849042,VALID,17.7708,VALID,67,VALID,0.379246,
2008-01-08, 02:12:00,VALID,917.89,VALID,0,VALID,100,VALID,-0.0679233,VALID,17.7874,VALID,67,VALID,0.285069,
2008-01-08, 02:13:00,VALID,917.865,VALID,0,VALID,100,VALID,-0.0679233,VALID,17.781,VALID,67,VALID,0.361151,
2008-01-08, 02:14:00,VALID,917.867,VALID,0,VALID,100,VALID,-0.0679233,VALID,17.7483,VALID,67,VALID,0.311328,
2008-01-08, 02:15:00,VALID,917.853,VALID,0,VALID,100,VALID,-0.0849042,VALID,17.7291,VALID,67,VALID,0.0294471,
2008-01-08, 02:16:00,VALID,917.831,VALID,0,VALID,100,VALID,-0.0679233,VALID,17.7062,VALID,67,VALID,0,
2008-01-08, 02:17:00,VALID,917.837,VALID,0,VALID,100,VALID,-0.0679233,VALID,17.7096,VALID,67,VALID,0,
2008-01-08, 02:18:00,VALID,917.834,VALID,0,VALID,100,VALID,-0.101885,VALID,17.7064,VALID,67,VALID,0,
2008-01-08, 02:19:00,VALID,917.817,VALID,0,VALID,100,VALID,-0.0679233,VALID,17.6837,VALID,67,VALID,0,
2008-01-08, 02:20:00,VALID,917.818,VALID,0,VALID,100,VALID,-0.0679233,VALID,17.6545,VALID,67,VALID,0,
2008-01-08, 02:21:00,VALID,917.814,VALID,0,VALID,100,VALID,-0.0679233,VALID,17.6026,VALID,67,VALID,0,
2008-01-08, 02:22:00,VALID,917.796,VALID,0,VALID,100,VALID,-0.0509425,VALID,17.5767,VALID,109,VALID,0.48274,
2008-01-08, 02:23:00,VALID,917.796,VALID,0,VALID,100,VALID,-0.0339617,VALID,17.5443,VALID,160,VALID,0.834223,
2008-01-08, 02:24:00,VALID,917.79,VALID,0,VALID,100,VALID,-0.0679233,VALID,17.5183,VALID,169,VALID,0.93859,
2008-01-08, 02:25:00,VALID,917.788,VALID,0,VALID,100,VALID,-0.0339617,VALID,17.5441,VALID,158,VALID,0.942708,
2008-01-08, 02:26:00,VALID,917.771,VALID,0,VALID,100,VALID,-0.0509425,VALID,17.5989,VALID,150,VALID,1.02691,
2008-01-08, 02:27:00,VALID,917.758,VALID,0,VALID,100,VALID,0,VALID,17.6675,VALID,150,VALID,0.889898,
2008-01-08, 02:28:00,VALID,917.751,VALID,0,VALID,100,VALID,-0.0339617,VALID,17.664,VALID,150,VALID,0.887767,
2008-01-08, 02:29:00,VALID,917.738,VALID,0,VALID,100,VALID,-0.0509425,VALID,17.6902,VALID,150,VALID,1.15075,
2008-01-08, 02:30:00,VALID,917.725,VALID,0,VALID,100,VALID,-0.0679233,VALID,17.7446,VALID,150,VALID,1.05451,
2008-01-08, 02:31:00,VALID,917.714,VALID,0,VALID,100,VALID,-0.0679233,VALID,17.7939,VALID,149,VALID,0.940104,
2008-01-08, 02:32:00,VALID,917.712,VALID,0,VALID,100,VALID,-0.0339617,VALID,17.8125,VALID,149,VALID,0.793241,
2008-01-08, 02:33:00,VALID,917.708,VALID,0,VALID,100,VALID,-0.0849042,VALID,17.8523,VALID,140,VALID,0.762767,
2008-01-08, 02:34:00,VALID,917.706,VALID,0,VALID,100,VALID,-0.0339617,VALID,17.8488,VALID,134,VALID,0.647135,
2008-01-08, 02:35:00,VALID,917.683,VALID,0,VALID,100,VALID,-0.0679233,VALID,17.8361,VALID,129,VALID,0.711846,
2008-01-08, 02:36:00,VALID,917.671,VALID,0,VALID,100,VALID,-0.101885,VALID,17.8041,VALID,129,VALID,0.803571,
2008-01-08, 02:37:00,VALID,917.665,VALID,0,VALID,100,VALID,-0.0679233,VALID,17.8166,VALID,129,VALID,0.844322,
2008-01-08, 02:38:00,VALID,917.667,VALID,0,VALID,100,VALID,-0.0339617,VALID,17.8229,VALID,129,VALID,0.923971,
2008-01-08, 02:39:00,VALID,917.667,VALID,0,VALID,100,VALID,-0.0679233,VALID,17.8264,VALID,130,VALID,0.959302,
2008-01-08, 02:40:01,VALID,917.668,VALID,0,VALID,100,VALID,-0.0509425,VALID,17.8393,VALID,134,VALID,0.984557,
2008-01-08, 02:41:00,VALID,917.673,VALID,0,VALID,100,VALID,-0.0509425,VALID,17.8423,VALID,135,VALID,0.693444,
2008-01-08, 02:42:00,VALID,917.685,VALID,0,VALID,100,VALID,-0.0679233,VALID,17.8456,VALID,134,VALID,0.580273,
2008-01-08, 02:43:01,VALID,917.684,VALID,0,VALID,100,VALID,-0.0169808,VALID,17.8518,VALID,127,VALID,0.644531,
2008-01-08, 02:44:00,VALID,917.678,VALID,0,VALID,100,VALID,-0.0509425,VALID,17.8421,VALID,127,VALID,0.327714,
2008-01-08, 02:45:00,VALID,917.668,VALID,0,VALID,100,VALID,-0.0339617,VALID,17.8454,VALID,127,VALID,0.659108,
2008-01-08, 02:46:00,VALID,917.675,VALID,0,VALID,100,VALID,-0.0339617,VALID,17.8523,VALID,139,VALID,0.688702,
2008-01-08, 02:47:00,VALID,917.675,VALID,0,VALID,100,VALID,-0.0509425,VALID,17.8491,VALID,139,VALID,0.641493,
2008-01-08, 02:48:00,VALID,917.661,VALID,0,VALID,100,VALID,-0.0339617,VALID,17.8423,VALID,139,VALID,0.87934,
2008-01-08, 02:49:00,VALID,917.646,VALID,0,VALID,100,VALID,-0.0169808,VALID,17.8488,VALID,138,VALID,0.902148,
2008-01-08, 02:50:00,VALID,917.638,VALID,0,VALID,100,VALID,-0.0339617,VALID,17.8586,VALID,129,VALID,0.837941,
2008-01-08, 02:51:00,VALID,917.618,VALID,0,VALID,100,VALID,0,VALID,17.8521,VALID,120,VALID,0.85774,
2008-01-08, 02:52:00,VALID,917.615,VALID,0,VALID,100,VALID,-0.0339617,VALID,17.8488,VALID,117,VALID,1.11846,
2008-01-08, 02:53:00,VALID,917.591,VALID,0,VALID,100,VALID,0,VALID,17.8458,VALID,118,VALID,0.844477,
2008-01-08, 02:54:01,VALID,917.584,VALID,0,VALID,100,VALID,-0.0339617,VALID,17.8328,VALID,124,VALID,1.02253,
2008-01-08, 02:55:00,VALID,917.564,VALID,0,VALID,100,VALID,-0.0169808,VALID,17.8421,VALID,136,VALID,1.02557,
2008-01-08, 02:56:00,VALID,917.534,VALID,0,VALID,100,VALID,0,VALID,17.888,VALID,128,VALID,1.41053,
2008-01-08, 02:57:00,VALID,917.539,VALID,0,VALID,100,VALID,-0.0339617,VALID,17.9009,VALID,136,VALID,0.836119,
2008-01-08, 02:58:00,VALID,917.527,VALID,0,VALID,100,VALID,-0.0169808,VALID,17.9072,VALID,139,VALID,1.13645,
2008-01-08, 02:59:00,VALID,917.53,VALID,0,VALID,100,VALID,-0.0169808,VALID,17.9301,VALID,135,VALID,1.2967,
2008-01-08, 03:00:00,VALID,917.53,VALID,0,VALID,100,VALID,-0.0509425,VALID,17.9396,VALID,135,VALID,1.43963,
2008-01-08, 03:01:01,VALID,917.535,VALID,0,VALID,100,VALID,0,VALID,17.9593,VALID,148,VALID,1.27852,
2008-01-08, 03:02:00,VALID,917.545,VALID,0,VALID,100,VALID,-0.0169808,VALID,17.9396,VALID,158,VALID,1.09784,
2008-01-08, 03:03:01,VALID,917.541,VALID,0,VALID,100,VALID,-0.0169808,VALID,17.907,VALID,157,VALID,1.20876,
2008-01-08, 03:04:00,VALID,917.539,VALID,0,VALID,100,VALID,0,VALID,17.881,VALID,154,VALID,1.23561,
2008-01-08, 03:05:00,VALID,917.548,VALID,0,VALID,100,VALID,0,VALID,17.8586,VALID,155,VALID,1.1149,
2008-01-08, 03:06:00,VALID,917.549,VALID,0,VALID,100,VALID,-0.0169808,VALID,17.8326,VALID,156,VALID,1.23996,
2008-01-08, 03:07:00,VALID,917.557,VALID,0,VALID,100,VALID,-0.0339617,VALID,17.8229,VALID,156,VALID,1.35592,
2008-01-08, 03:08:01,VALID,917.553,VALID,0,VALID,100,VALID,-0.0169808,VALID,17.8261,VALID,164,VALID,1.17401,
2008-01-08, 03:09:00,VALID,917.56,VALID,0,VALID,100,VALID,-0.0169808,VALID,17.8555,VALID,165,VALID,1.39864,
2008-01-08, 03:10:00,VALID,917.559,VALID,0,VALID,100,VALID,0,VALID,17.8555,VALID,175,VALID,0.907252,
2008-01-08, 03:11:01,VALID,917.552,VALID,0,VALID,100,VALID,-0.0339617,VALID,17.8653,VALID,167,VALID,0.518576,
2008-01-08, 03:12:00,VALID,917.543,VALID,0,VALID,100,VALID,-0.0169808,VALID,17.862,VALID,174,VALID,0.933416,
2008-01-08, 03:13:00,VALID,917.535,VALID,0,VALID,100,VALID,-0.0169808,VALID,17.8655,VALID,164,VALID,0.861506,
2008-01-08, 03:14:00,VALID,917.524,VALID,0,VALID,100,VALID,-0.0339617,VALID,17.8718,VALID,167,VALID,0.86849,
2008-01-08, 03:15:00,VALID,917.508,VALID,0,VALID,100,VALID,-0.0339617,VALID,17.875,VALID,171,VALID,0.676829,
2008-01-08, 03:16:01,VALID,917.504,VALID,0,VALID,100,VALID,-0.0339617,VALID,17.8877,VALID,171,VALID,0.503452,
2008-01-08, 03:17:00,VALID,917.511,VALID,0,VALID,100,VALID,-0.0509425,VALID,17.8908,VALID,171,VALID,0.677827,
2008-01-08, 03:18:00,VALID,917.499,VALID,0,VALID,100,VALID,-0.0339617,VALID,17.9076,VALID,170,VALID,0.579545,
2008-01-08, 03:19:00,VALID,917.5,VALID,0,VALID,100,VALID,-0.0339617,VALID,17.9204,VALID,170,VALID,0.466797,
2008-01-08, 03:20:00,VALID,917.496,VALID,0,VALID,100,VALID,-0.0169808,VALID,17.9135,VALID,170,VALID,0.551136,
2008-01-08, 03:21:00,VALID,917.517,VALID,0,VALID,100,VALID,-0.0509425,VALID,17.9431,VALID,170,VALID,0.505996,
2008-01-08, 03:22:00,VALID,917.514,VALID,0,VALID,100,VALID,-0.0339617,VALID,17.9558,VALID,170,VALID,0.376868,
2008-01-08, 03:23:00,VALID,917.526,VALID,0,VALID,100,VALID,-0.0339617,VALID,17.969,VALID,170,VALID,0.478993,
2008-01-08, 03:24:00,VALID,917.53,VALID,0,VALID,100,VALID,-0.0169808,VALID,17.972,VALID,170,VALID,0.625781,
2008-01-08, 03:25:00,VALID,917.532,VALID,0,VALID,100,VALID,0,VALID,17.9852,VALID,169,VALID,0.839311,
2008-01-08, 03:26:01,VALID,917.531,VALID,0,VALID,100,VALID,0,VALID,18.0142,VALID,169,VALID,0.685501,
2008-01-08, 03:27:01,VALID,917.52,VALID,0,VALID,100,VALID,0,VALID,18.0466,VALID,169,VALID,0.547433,
2008-01-08, 03:28:00,VALID,917.511,VALID,0,VALID,100,VALID,0,VALID,18.076,VALID,169,VALID,0.506214,
2008-01-08, 03:29:01,VALID,917.507,VALID,0,VALID,100,VALID,0,VALID,18.0985,VALID,169,VALID,0.367374,
2008-01-08, 03:30:01,VALID,917.493,VALID,0,VALID,100,VALID,-0.0169808,VALID,18.1085,VALID,169,VALID,0.337081,
2008-01-08, 03:31:00,VALID,917.469,VALID,0,VALID,100,VALID,-0.0849042,VALID,18.1182,VALID,169,VALID,0.424479,
2008-01-08, 03:32:01,VALID,917.465,VALID,0,VALID,100,VALID,-0.0339617,VALID,18.1247,VALID,169,VALID,0.239281,
2008-01-08, 03:33:01,VALID,917.455,VALID,0,VALID,100,VALID,-0.0509425,VALID,18.1478,VALID,169,VALID,0.23383,
2008-01-08, 03:34:00,VALID,917.456,VALID,0,VALID,100,VALID,-0.0339617,VALID,18.1472,VALID,169,VALID,0.413368,
2008-01-08, 03:35:01,VALID,917.461,VALID,0,VALID,100,VALID,-0.0169808,VALID,18.1504,VALID,169,VALID,0.571075,
2008-01-08, 03:36:01,VALID,917.464,VALID,0,VALID,100,VALID,0,VALID,18.1668,VALID,169,VALID,0.414435,
2008-01-08, 03:37:01,VALID,917.465,VALID,0,VALID,100,VALID,-0.0509425,VALID,18.1791,VALID,169,VALID,0.336868,
2008-01-08, 03:38:01,VALID,917.473,VALID,0,VALID,100,VALID,-0.0339617,VALID,18.1895,VALID,158,VALID,0.599657,
2008-01-08, 03:39:01,VALID,917.462,VALID,0,VALID,100,VALID,-0.0339617,VALID,18.2252,VALID,156,VALID,0.632986,